Flag for Greece Weather past 2 weeks in Heraklion, Crete, Greece

Now
81 °F

Passing clouds.


Feels Like: 83 °F
Forecast: 74 / 82 °F
Wind: 8 mph from Northwest

Location: Heraklion Airport

Current Time: Aug 28, 2015 at 6:47:54 PM

Latest Report: Aug 28, 2015 at 5:50 PM


Visibility: N/A

Pressure: 29.98 "Hg

Humidity: 66%

Dew point: 68 °F

Location of HeraklionLocation

Historic Weather in Heraklion — Graph

°F

Heraklion temperature yesterday

Maximum temperature yesterday: 82 °F (at 3:50 PM)
Minimum temperature yesterday: 75 °F (at 11:50 PM)
Average temperature yesterday: 78 °F

Past Weeks' High & Low Weather Summary

 TemperatureHumidityPressure
High95 °F (Aug 14, 3:50 PM)94% (Aug 15, 5:50 AM)30.01 "Hg (Aug 15, 5:50 AM)
Low70 °F (Aug 20, 6:50 AM)39% (Aug 14, 1:50 PM)29.77 "Hg (Aug 14, 2:50 AM)
Average80 °F70%29.86 "Hg
* Reported Aug 13 5:20 PM — Aug 28 5:50 PM, Heraklion, Weather by CustomWeather, © 2015

Note: Actual official high and low records may vary slightly from our data, if they occured in-between our weather recording intervals... More about our weather records

Advertising

Heraklion weather history for previous 24 hours

 ConditionsComfort  
Time TempWeatherWind HumidityBarometerVisibility
5:50 PM
Fri, Aug 28
81 °FPassing clouds.8 mph66%29.98 "HgN/A
5:20 PM81 °FPassing clouds.8 mph70%29.98 "HgN/A
4:50 PM81 °FPassing clouds.8 mph70%29.98 "HgN/A
4:20 PM82 °FPassing clouds.9 mph66%29.98 "HgN/A
3:50 PM82 °FPassing clouds.9 mph66%29.98 "HgN/A
3:20 PM82 °FPassing clouds.12 mph66%30.01 "HgN/A
2:50 PM82 °FPassing clouds.12 mph66%30.01 "HgN/A
2:20 PM82 °FPassing clouds.18 mph62%30.01 "HgN/A
1:50 PM82 °FPassing clouds.18 mph62%30.01 "HgN/A
1:20 PM82 °FPassing clouds.18 mph62%30.01 "HgN/A
12:50 PM82 °FPassing clouds.17 mph62%30.01 "HgN/A
12:20 PM82 °FPassing clouds.17 mph66%30.01 "HgN/A
11:50 AM82 °FPassing clouds.17 mph66%30.01 "HgN/A
11:20 AM81 °FPassing clouds.18 mph66%29.98 "HgN/A
10:50 AM81 °FPassing clouds.18 mph66%29.98 "HgN/A
10:20 AM79 °FPassing clouds.15 mph65%29.98 "HgN/A
9:50 AM79 °FPassing clouds.12 mph65%29.98 "HgN/A
9:20 AM79 °FPassing clouds.8 mph65%29.98 "HgN/A
8:50 AM79 °FPassing clouds.8 mph65%29.98 "HgN/A
8:20 AM75 °FPassing clouds.6 mph74%29.95 "HgN/A
7:50 AM73 °FPassing clouds.5 mph74%29.95 "HgN/A
7:20 AM72 °FPassing clouds.3 mph73%29.95 "HgN/A
6:50 AM72 °FPassing clouds.3 mph73%29.95 "HgN/A
5:50 AM73 °FPassing clouds.5 mph78%29.95 "HgN/A
5:20 AM75 °FPassing clouds.3 mph74%29.95 "HgN/A
4:20 AM75 °FPassing clouds.3 mph74%29.95 "HgN/A
3:20 AM75 °FPassing clouds.5 mph74%29.95 "HgN/A
2:50 AM75 °FPassing clouds.5 mph74%29.95 "HgN/A
2:20 AM75 °FPassing clouds.5 mph74%29.95 "HgN/A
1:50 AM75 °FPassing clouds.5 mph74%29.95 "HgN/A
1:20 AM75 °FPassing clouds.7 mph78%29.95 "HgN/A
12:50 AM75 °FPassing clouds.7 mph78%29.95 "HgN/A
12:20 AM75 °FPassing clouds.8 mph78%29.95 "HgN/A
11:50 PM
Thu, Aug 27
75 °FPassing clouds.8 mph78%29.95 "HgN/A
11:20 PM77 °FPassing clouds.12 mph74%29.95 "HgN/A
10:50 PM77 °FPassing clouds.12 mph74%29.95 "HgN/A
10:20 PM77 °FPassing clouds.13 mph74%29.95 "HgN/A
9:50 PM77 °FPassing clouds.12 mph74%29.95 "HgN/A
9:20 PM77 °FPassing clouds.10 mph74%29.95 "HgN/A
8:50 PM77 °FPassing clouds.10 mph74%29.95 "HgN/A
8:20 PM77 °FPassing clouds.10 mph74%29.95 "HgN/A
7:50 PM77 °FPassing clouds.10 mph74%29.95 "HgN/A
7:20 PM79 °FPassing clouds.12 mph65%29.95 "HgN/A
6:50 PM79 °FPassing clouds.9 mph65%29.95 "HgN/A
6:20 PM81 °FPassing clouds.10 mph66%29.95 "HgN/A
Weather by CustomWeather, © 2015

See weather overviewHow to use our weather pages